Location: Geelbroek
(52.9503°N, 6.5712°E)
Time: 05:48:57
(UTC+00:00)

Cosmos 2322 - Pass Details

Date: 15 May 2026
Orbit: 840 x 853 km, 71.0° (Epoch: 6 June)

Event Time Altitude Azimuth Distance (km) Brightness Sun altitude
Rises 21:48:23 0° 328° (NNW) 3,429 8.7 -14.7°
Reaches altitude 10° 21:50:51 10° 331° (NNW) 2,488 7.6 -14.9°
Maximum altitude 21:56:35 73° 56° (NE) 890 3.8 -15.2°
Enters shadow 22:00:22 22° 138° (SE) 1,779 4.8 -15.4°
